"2010-02-25 00:00:00",1710999,3.179,210.4,3.292,0.189,5.479,102.7224,6.248,7.25,14.56,0,109.9,13.49,7.02,172.4
"2010-02-25 00:00:30",1711000,3.286,211.6,3.003,0.19,5.321,102.7142,6.227,7.252,14.99,0,109.9,13.49,7.00,173.6
"2010-02-25 00:01:00",1711001,3.657,213.6,5.673,0.747,6.752,102.7133,6.225,7.403,15.48,0,109.9,13.47,7.00,175.6
"2010-02-25 00:01:30",1711002,4.761,219.8,7.54,1.211,8.58,102.7131,6.224,7.333,15.58,0,109.9,13.47,7.00,181.8
"2010-02-25 00:02:00",1711003,5.201,218.4,6.377,1.167,10.39,102.7128,6.224,7.521,15.67,0,109.9,13.47,7.00,180.4
"2010-02-25 00:02:30",1711004,5.782,221.5,6.55,0.906,10.47,102.7128,6.224,7.525,15.49,0,109.9,13.47,7.00,183.5
"2010-02-25 00:03:00",1711005,4.919,220.1,5.827,1.334,9.05,102.7128,6.224,7.451,15.37,0,109.9,13.47,7.00,182.1
"2010-02-25 00:03:30",1711006,3.253,220.6,2.383,0.108,5.459,102.7128,6.224,7.231,15.28,0,109.9,13.5,7.00,182.6
"2010-02-25 00:04:00",1711007,3.477,221.5,1.83,0.15,5.484,102.7128,6.224,7.227,15.6,0,109.9,13.5,7.00,183.5
"2010-02-25 00:04:30",1711008,4.985,225.5,7.155,1.136,8.34,102.7128,6.224,7.391,15.85,0,109.9,13.47,7.00,187.5
"2010-02-25 00:05:00",1711009,4.054,223.9,5.573,1.086,7.839,102.7125,6.223,7.337,15.71,0,109.9,13.47,7.00,185.9
"2010-02-25 00:05:30",1711010,5.641,228.7,4.504,0.669,10.96,102.7006,6.193,7.507,15.93,0,109.9,13.47,6.97,190.7
"2010-02-25 00:06:00",1711011,5.678,224.7,4.686,0.718,10.68,102.6817,6.144,7.53,15.92,0,109.9,13.47,6.92,186.7
"2010-02-25 00:06:30",1711012,3.975,213.5,5.675,1.023,7.026,102.6789,6.137,7.26,15.39,0,109.9,13.47,6.91,175.5
"2010-02-25 00:07:00",1711013,3.603,205.4,3.899,0.159,5.721,102.6789,6.137,7.181,15.03,0,109.9,13.5,6.91,167.4
"2010-02-25 00:07:30",1711014,4.128,200.5,5.002,0.793,6.91,102.6789,6.137,7.328,14.77,0,109.9,13.47,6.91,162.5
"2010-02-25 00:08:00",1711015,5.292,201.8,6.572,1.203,8.18,102.6789,6.137,7.176,14.39,0,109.9,13.47,6.91,163.8
"2010-02-25 00:08:30",1711016,5.488,206.9,6.672,1.126,10.11,102.6786,6.136,7.49,14.55,0,109.9,13.47,6.91,168.9
"2010-02-25 00:09:00",1711017,6.386,210.7,5.154,0.703,11.32,102.6707,6.116,7.481,14.64,0,109.9,13.47,6.89,172.7
"2010-02-25 00:09:30",1711018,5.129,210.9,4.267,1.335,8.79,102.6628,6.096,7.278,14.45,0,109.9,13.47,6.87,172.9
"2010-02-25 00:10:00",1711019,3.806,205.5,1.399,0.152,5.818,102.6498,6.063,7.133,14.41,0,109.9,13.5,6.84,167.5
"2010-02-25 00:10:30",1711020,3.944,205.2,5.175,0.576,6.102,102.6452,6.051,7.102,14.46,0,109.9,13.47,6.82,167.2
"2010-02-25 00:11:00",1711021,4.048,210.2,8.08,1.275,7.145,102.645,6.05,7.115,14.64,0,109.9,13.47,6.82,172.2
"2010-02-25 00:11:30",1711022,4.497,210,6.296,1.249,8.79,102.645,6.05,7.319,15.16,0,109.9,13.47,6.82,172.0
"2010-02-25 00:12:00",1711023,4.863,212.5,6.476,1.382,9.48,102.645,6.05,7.358,15.53,0,109.9,13.47,6.82,174.5
"2010-02-25 00:12:30",1711024,5.842,211.1,6.601,1.077,10.05,102.645,6.05,7.327,15.36,0,109.9,13.47,6.82,173.1
"2010-02-25 00:13:00",1711025,4.721,205.8,6.516,1.171,7.755,102.6435,6.047,7.126,14.78,0,109.9,13.47,6.82,167.8
"2010-02-25 00:13:30",1711026,3.741,202,1.19,0.07,6.05,102.6376,6.032,7.054,14.48,0,109.9,13.5,6.80,164.0
"2010-02-25 00:14:00",1711027,4.418,206.6,6.016,1.127,7.618,102.6269,6.004,7.189,14.58,0,109.9,13.47,6.78,168.6
"2010-02-25 00:14:30",1711028,5.459,212.6,5.594,1.255,9.6,102.6156,5.975,7.247,14.61,0,109.9,13.47,6.75,174.6
"2010-02-25 00:15:00",1711029,5.217,209.4,6.216,1.267,9.63,102.6111,5.964,7.237,14.58,0,109.9,13.47,6.74,171.4
"2010-02-25 00:15:30",1711030,4.906,205.8,6.34,1.247,8.72,102.6111,5.964,7.212,14.59,0,110,13.47,6.74,167.8
"2010-02-25 00:16:00",1711031,5.736,209.2,5.478,1.139,9.84,102.6111,5.964,7.244,14.52,0,109.9,13.47,6.74,171.2
"2010-02-25 00:16:30",1711032,4.436,200,4.72,0.952,6.836,102.6111,5.964,7.003,14.15,0,109.9,13.47,6.74,162.0
"2010-02-25 00:17:00",1711033,4.09,197.5,0.585,0.083,6.257,102.6111,5.964,7.011,14.15,0,109.9,13.49,6.74,159.5
"2010-02-25 00:17:30",1711034,5.866,204.3,6.603,1.264,9.68,102.6111,5.964,7.242,14.36,0,109.8,13.46,6.74,166.3
"2010-02-25 00:18:00",1711035,5.972,206.4,5.495,1.208,10.16,102.6111,5.964,7.202,14.28,0,109.9,13.47,6.74,168.4
"2010-02-25 00:18:30",1711036,5.667,203.4,6.042,1.236,9.46,102.6111,5.964,7.197,14.4,0,109.9,13.46,6.74,165.4
"2010-02-25 00:19:00",1711037,5.512,203.9,7.036,1.262,8.79,102.6111,5.964,7.173,14.51,0,109.9,13.47,6.74,165.9
"2010-02-25 00:19:30",1711038,5.143,204.1,7.572,1.248,8.34,102.6111,5.964,7.162,14.55,0,109.9,13.46,6.74,166.1
"2010-02-25 00:20:00",1711039,3.658,201.7,1.165,0.175,6.168,102.6111,5.964,6.977,14.49,0,109.9,13.49,6.74,163.7
"2010-02-25 00:20:30",1711040,4.824,210.7,6.952,1.286,8.14,102.6111,5.964,7.075,14.76,0,109.9,13.47,6.74,172.7
"2010-02-25 00:21:00",1711041,5.279,212.6,6.34,1.218,9.59,102.6108,5.963,7.234,15.02,0,109.9,13.47,6.74,174.6
"2010-02-25 00:21:30",1711042,4.99,214.3,5.989,1.34,8.79,102.6102,5.962,7.125,15.07,0,109.9,13.47,6.73,176.3
"2010-02-25 00:22:00",1711043,3.964,215.5,7.086,1.184,7.727,102.6088,5.958,7.13,15.17,0,109.9,13.47,6.73,177.5
"2010-02-25 00:22:30",1711044,3.721,217.3,5.913,1.257,7.436,102.604,5.946,7.056,15.29,0,109.9,13.47,6.72,179.3
"2010-02-25 00:23:00",1711045,3.58,218.8,6.202,1.192,7.91,102.5986,5.932,7.117,15.56,0,109.9,13.47,6.70,180.8
"2010-02-25 00:23:30",1711046,2.7,213.1,1.52,0.511,5.885,102.5978,5.93,6.968,15.65,0,109.9,13.47,6.70,175.1
"2010-02-25 00:24:00",1711047,4.286,223,6.243,1.185,9.22,102.591,5.913,7.146,15.85,0,109.9,13.47,6.69,185.0
"2010-02-25 00:24:30",1711048,4.001,220.5,6.11,1.268,8.9,102.587,5.902,7.142,15.94,0,109.9,13.48,6.68,182.5
"2010-02-25 00:25:00",1711049,3.399,216.9,6.232,1.245,7.693,102.5811,5.887,7.04,15.88,0,109.9,13.48,6.66,178.9
"2010-02-25 00:25:30",1711050,3.337,219.1,6.645,1.236,7.413,102.58,5.884,7.086,16.07,0,109.9,13.48,6.66,181.1
"2010-02-25 00:26:00",1711051,3.061,218.3,4.889,1.106,6.376,102.5771,5.877,6.936,16.09,0,109.9,13.47,6.65,180.3
"2010-02-25 00:26:30",1711052,3.649,221.6,6.241,1.265,8.19,102.5771,5.877,7.097,16.29,0,109.9,13.48,6.65,183.6
"2010-02-25 00:27:00",1711053,2.544,217.9,2.746,0.659,6.317,102.5771,5.877,6.93,16.21,0,109.9,13.48,6.65,179.9
"2010-02-25 00:27:30",1711054,3.477,219.6,6.26,1.288,7.725,102.5771,5.877,7.071,16.44,0,109.9,13.48,6.65,181.6
"2010-02-25 00:28:00",1711055,4.204,216.3,7.72,1.239,9.25,102.5771,5.877,7.19,16.65,0,109.9,13.48,6.65,178.3
"2010-02-25 00:28:30",1711056,4.838,210.9,6.503,1.166,8.75,102.5729,5.866,7.054,16.45,0,109.9,13.48,6.64,172.9
"2010-02-25 00:29:00",1711057,3.689,204,6.357,1.16,7.291,102.5562,5.824,7.027,16.25,0,109.9,13.48,6.60,166.0
"2010-02-25 00:29:30",1711058,4.36,203.6,6.628,1.19,7.313,102.5432,5.791,6.896,16.03,0,109.9,13.48,6.56,165.6
"2010-02-25 00:30:00",1711059,4.482,204.5,6.763,1.318,8.38,102.5432,5.791,7.039,16.04,0,109.9,13.48,6.56,166.5
"2010-02-25 00:30:30",1711060,3.933,201,5.315,1.101,7.542,102.5432,5.791,7.022,16.01,0,109.9,13.48,6.56,163.0
"2010-02-25 00:31:00",1711061,4.582,205.2,6.72,1.267,8.89,102.5432,5.791,7.129,16.14,0,109.9,13.48,6.56,167.2
"2010-02-25 00:31:30",1711062,4.342,200.5,6.313,1.297,8.16,102.5435,5.791,7.033,16.09,0,109.9,13.48,6.56,162.5
"2010-02-25 00:32:00",1711063,4.318,199.7,6.508,1.32,7.966,102.5418,5.787,6.97,16.07,0,109.9,13.47,6.56,161.7
"2010-02-25 00:32:30",1711064,3.434,199.2,5.222,0.815,6.512,102.5342,5.768,6.99,16.17,0,109.9,13.47,6.54,161.2
"2010-02-25 00:33:00",1711065,3.839,199.7,6.363,1.106,7.464,102.5229,5.739,6.988,16.38,0,109.9,13.47,6.51,161.7
"2010-02-25 00:33:30",1711066,3.719,204.5,7.532,1.224,7.737,102.5131,5.714,6.902,16.71,0,109.9,13.47,6.49,166.5
"2010-02-25 00:34:00",1711067,3.726,210,2.822,1.154,7.848,102.5125,5.712,6.888,16.95,0,109.9,13.47,6.48,172.0
"2010-02-25 00:34:30",1711068,3.873,218,7.493,1.244,8.46,102.5137,5.715,7.015,17.32,0,109.9,13.47,6.49,180.0
"2010-02-25 00:35:00",1711069,4.283,221.9,5.859,1.216,8.33,102.5137,5.715,6.859,17.31,0,109.9,13.47,6.49,183.9
"2010-02-25 00:35:30",1711070,3.158,213.4,6.363,1.026,6.236,102.5117,5.71,6.83,17.47,0,109.9,13.47,6.48,175.4
"2010-02-25 00:36:00",1711071,2.955,219,7.427,1.273,6.973,102.5047,5.692,6.792,17.36,0,109.9,13.47,6.46,181.0
"2010-02-25 00:36:30",1711072,2.48,214.6,4.902,0.851,6.993,102.4979,5.675,6.891,17.36,0,109.9,13.48,6.45,176.6
"2010-02-25 00:37:00",1711073,3.966,217.1,6.834,1.179,9.57,102.4879,5.649,6.886,17.15,0,109.9,13.48,6.42,179.1
"2010-02-25 00:37:30",1711074,3.406,229.6,13.52,1.26,8.68,102.4882,5.65,6.849,17.06,0,109.9,13.48,6.42,191.6
"2010-02-25 00:38:00",1711075,2.647,231.9,6.476,1.213,7.733,102.4893,5.653,6.788,17.69,0,109.9,13.48,6.42,193.9
"2010-02-25 00:38:30",1711076,2.15,241.1,12.62,1.152,6.698,102.4911,5.657,6.876,18.04,0,109.9,13.48,6.43,203.1
"2010-02-25 00:39:00",1711077,2.904,263.1,5.186,1.217,7.798,102.4878,5.649,6.779,18.26,0,109.9,13.48,6.42,225.1
"2010-02-25 00:39:30",1711078,2.141,255.4,6.343,0.977,5.998,102.4776,5.623,6.789,18.47,0,109.9,13.48,6.39,217.4
"2010-02-25 00:40:00",1711079,1.894,228.6,8.33,0.255,5.014,102.4658,5.593,6.642,18.29,0,109.9,13.52,6.36,190.6
"2010-02-25 00:40:30",1711080,2.801,221.6,4.454,1.028,6.615,102.4664,5.594,6.733,17.91,0,109.8,13.48,6.37,183.6
"2010-02-25 00:41:00",1711081,4.323,225.6,6.272,1.144,9.81,102.4693,5.602,6.859,17.57,0,109.9,13.49,6.37,187.6
"2010-02-25 00:41:30",1711082,3.338,220.5,6.741,1.195,8.2,102.4696,5.602,6.805,17.24,0,109.9,13.48,6.37,182.5
"2010-02-25 00:42:00",1711083,4.126,219,7.081,1.28,8.26,102.4716,5.608,6.697,16.88,0,109.9,13.48,6.38,181.0
"2010-02-25 00:42:30",1711084,4.616,219.8,6.502,1.247,9.13,102.4575,5.572,6.807,16.54,0,109.9,13.48,6.34,181.8
"2010-02-25 00:43:00",1711085,3.281,210.9,5.303,0.999,6.52,102.4397,5.526,6.576,15.85,0,109.9,13.48,6.30,172.9
"2010-02-25 00:43:30",1711086,2.683,207.2,0.539,0.101,6.038,102.4412,5.53,6.584,15.52,0,109.9,13.52,6.30,169.2
"2010-02-25 00:44:00",1711087,3.92,215.9,6.814,1.208,8.88,102.4406,5.528,6.747,15.77,0,109.9,13.49,6.30,177.9
"2010-02-25 00:44:30",1711088,3.759,217.5,6.64,1.242,9.09,102.4418,5.531,6.762,15.98,0,109.9,13.49,6.30,179.5
"2010-02-25 00:45:00",1711089,2.362,215.8,3.318,0.67,6.745,102.4415,5.531,6.627,16.23,0,109.9,13.49,6.30,177.8
"2010-02-25 00:45:30",1711090,2.855,224.4,8.47,1.127,7.425,102.4423,5.533,6.774,16.96,0,109.9,13.49,6.30,186.4
"2010-02-25 00:46:00",1711091,3.888,234.9,6.702,0.999,8.93,102.4415,5.531,6.71,17.35,0,109.9,13.49,6.30,196.9
"2010-02-25 00:46:30",1711092,1.801,230.5,3.73,0.705,5.227,102.437,5.519,6.516,17.28,0,109.9,13.49,6.29,192.5
"2010-02-25 00:47:00",1711093,1.558,229.2,3.055,0.085,4.975,102.4299,5.501,6.492,17.54,0,109.9,13.52,6.27,191.2
"2010-02-25 00:47:30",1711094,2.951,231.5,5.661,1.377,7.456,102.424,5.486,6.659,17.91,0,109.9,13.49,6.26,193.5
"2010-02-25 00:48:00",1711095,4.002,230.8,6.199,1.16,9.35,102.4206,5.477,6.686,17.88,0,109.9,13.49,6.25,192.8
"2010-02-25 00:48:30",1711096,4.037,221.6,6.12,1.349,9.55,102.4129,5.458,6.713,17.67,0,109.9,13.48,6.23,183.6
"2010-02-25 00:49:00",1711097,3.935,211.5,5.798,1.252,8.07,102.4084,5.446,6.645,16.86,0,109.9,13.48,6.22,173.5
"2010-02-25 00:49:30",1711098,4.487,212.1,6.331,1.226,9.18,102.4084,5.446,6.662,16.17,0,109.9,13.48,6.22,174.1
"2010-02-25 00:50:00",1711099,3.713,213.5,5.985,1.218,7.866,102.4084,5.446,6.567,15.95,0,109.9,13.48,6.22,175.5
"2010-02-25 00:50:30",1711100,2.591,209.4,0.663,0.047,5.708,102.4084,5.446,6.449,15.88,0,109.9,13.52,6.22,171.4
"2010-02-25 00:51:00",1711101,3.514,213.1,6.477,1.221,7.709,102.4084,5.446,6.596,16.13,0,109.9,13.48,6.22,175.1
"2010-02-25 00:51:30",1711102,4.107,219.2,6.322,1.213,9.61,102.4084,5.446,6.656,16.47,0,109.8,13.48,6.22,181.2
"2010-02-25 00:52:00",1711103,3.124,222.4,8.29,1.15,8.24,102.4081,5.445,6.599,17.07,0,109.9,13.48,6.22,184.4
"2010-02-25 00:52:30",1711104,2.584,224.9,6.564,1.188,7.345,102.4064,5.441,6.61,17.65,0,109.9,13.48,6.21,186.9
"2010-02-25 00:53:00",1711105,2.812,228.4,6.47,1.285,8.15,102.4019,5.43,6.684,17.98,0,109.8,13.48,6.20,190.4
"2010-02-25 00:53:30",1711106,2.21,231.8,5.154,1.202,6.268,102.3985,5.421,6.437,17.83,0,109.8,13.49,6.19,193.8
"2010-02-25 00:54:00",1711107,1.423,228.3,1.58,0.074,4.759,102.39,5.399,6.412,17.87,0,109.8,13.52,6.17,190.3
"2010-02-25 00:54:30",1711108,1.602,220.8,2.022,0.064,5.472,102.377,5.366,6.453,17.89,0,109.8,13.53,6.14,182.8
"2010-02-25 00:55:00",1711109,2.531,220.3,6.494,1.224,7.568,102.3748,5.36,6.504,17.81,0,109.8,13.5,6.13,182.3
"2010-02-25 00:55:30",1711110,2.654,219,5.8,1.25,7.718,102.3745,5.36,6.518,17.77,0,109.8,13.5,6.13,181.0
"2010-02-25 00:56:00",1711111,2.304,217.5,6.89,1.237,7.689,102.3745,5.36,6.565,17.81,0,109.8,13.5,6.13,179.5
"2010-02-25 00:56:30",1711112,2.109,216.3,6.585,1.191,7.483,102.3745,5.36,6.557,17.83,0,109.8,13.5,6.13,178.3
"2010-02-25 00:57:00",1711113,3.18,223.1,6.037,1.192,8.97,102.3745,5.36,6.66,17.94,0,109.8,13.5,6.13,185.1
"2010-02-25 00:57:30",1711114,1.424,218.4,2.677,0.484,5.465,102.3745,5.36,6.39,17.68,0,109.8,13.5,6.13,180.4
"2010-02-25 00:58:00",1711115,1.786,218,3.833,0.861,5.83,102.3745,5.36,6.389,17.71,0,109.8,13.5,6.13,180.0
"2010-02-25 00:58:30",1711116,2.413,221.7,4.761,1.074,6.631,102.3745,5.36,6.45,17.63,0,109.8,13.5,6.13,183.7
"2010-02-25 00:59:00",1711117,3.106,224.9,6.527,1.238,8.49,102.3742,5.359,6.423,17.21,0,109.8,13.5,6.13,186.9
"2010-02-25 00:59:30",1711118,2.29,213.1,3.718,0.669,6.366,102.3702,5.349,6.439,16.96,0,109.8,13.5,6.12,175.1
"2010-02-25 01:00:00",1711119,3.735,221,6.764,1.302,9,102.3643,5.334,6.479,16.61,0,109.8,13.5,6.10,183.0
"2010-02-25 01:00:30",1711120,4.087,220.9,6.936,1.278,9.71,102.3513,5.3,6.618,16.3,0,109.8,13.5,6.07,182.9
"2010-02-25 01:01:00",1711121,4.122,218.1,6.836,1.204,9.53,102.3417,5.276,6.531,16.09,0,109.8,13.5,6.05,180.1
"2010-02-25 01:01:30",1711122,2.123,211.1,1.044,0.1,5.751,102.3406,5.273,6.351,15.92,0,109.8,13.53,6.04,173.1
"2010-02-25 01:02:00",1711123,2.776,221.5,8.65,1.175,7.538,102.3454,5.285,6.477,16.4,0,109.8,13.5,6.06,183.5
"2010-02-25 01:02:30",1711124,1.659,225.7,4.93,0.14,5.818,102.3677,5.342,6.451,17.09,0,109.8,13.53,6.11,187.7
"2010-02-25 01:03:00",1711125,2.046,245.3,6.762,1.049,6.39,102.3742,5.359,6.339,17.85,0,109.8,13.5,6.13,207.3
"2010-02-25 01:03:30",1711126,1.704,248.6,3.057,0.463,5.831,102.3734,5.357,6.433,18.22,0,109.8,13.5,6.13,210.6
"2010-02-25 01:04:00",1711127,3.331,262.5,5.085,1.134,9.46,102.3702,5.349,6.515,18.23,0,109.8,13.5,6.12,224.5
"2010-02-25 01:04:30",1711128,2.903,275.1,9.41,1.3,8.77,102.3646,5.334,6.579,18.36,0,109.8,13.5,6.11,237.1
"2010-02-25 01:05:00",1711129,3.253,292.6,6.841,0.986,7.264,102.3584,5.318,6.413,18.23,0,109.8,13.5,6.09,254.6
"2010-02-25 01:05:30",1711130,3.638,300.1,6.293,1.176,6.956,102.3485,5.293,6.386,18.08,0,109.8,13.5,6.06,262.1
"2010-02-25 01:06:00",1711131,3.766,297.4,6.358,1.19,7.191,102.3431,5.279,6.454,18.08,0,109.8,13.5,6.05,259.4
"2010-02-25 01:06:30",1711132,2.341,280.9,6.351,0.116,5.692,102.3406,5.273,6.326,17.98,0,109.8,13.53,6.04,242.9
"2010-02-25 01:07:00",1711133,2.978,272.5,9.97,1.207,7.299,102.3406,5.273,6.312,17.59,0,109.8,13.5,6.04,234.5
"2010-02-25 01:07:30",1711134,3.427,282,7.163,1.291,9.16,102.3406,5.273,6.562,17.4,0,109.8,13.5,6.04,244.0
"2010-02-25 01:08:00",1711135,4.362,294.6,7.616,1.065,9.28,102.3409,5.274,6.533,17.41,0,109.8,13.5,6.04,256.6
"2010-02-25 01:08:30",1711136,3.311,281.4,13.52,1.299,7.391,102.3411,5.274,6.459,17.65,0,109.8,13.5,6.04,243.4
"2010-02-25 01:09:00",1711137,2.621,264.3,7.9,1.242,7.292,102.3406,5.273,6.402,17.11,0,109.8,13.5,6.04,226.3
"2010-02-25 01:09:30",1711138,1.965,258.6,9.8,0.99,6.471,102.3414,5.275,6.439,16.95,0,109.8,13.5,6.05,220.6
"2010-02-25 01:10:00",1711139,2.173,274.2,6.409,1.238,6.834,102.3429,5.279,6.306,16.78,0,109.8,13.5,6.05,236.2
"2010-02-25 01:10:30",1711140,1.725,278.3,5.21,1.059,6.743,102.3432,5.28,6.313,16.76,0,109.8,13.5,6.05,240.3
"2010-02-25 01:11:00",1711141,2.266,272.5,9.05,0.992,6.965,102.342,5.277,6.378,16.75,0,109.8,13.5,6.05,234.5
"2010-02-25 01:11:30",1711142,3.398,278.8,8.23,1.234,8.64,102.3426,5.278,6.552,16.84,0,109.8,13.51,6.05,240.8
"2010-02-25 01:12:00",1711143,2.857,268.9,10.04,1.265,8.3,102.3418,5.276,6.549,16.77,0,109.8,13.51,6.05,230.9
"2010-02-25 01:12:30",1711144,2.692,262.4,5.547,1.168,6.979,102.3412,5.275,6.346,16.09,0,109.8,13.5,6.05,224.4
"2010-02-25 01:13:00",1711145,2.896,265.6,8.89,1.321,7.819,102.3418,5.276,6.421,15.85,0,109.8,13.51,6.05,227.6
"2010-02-25 01:13:30",1711146,2.38,261.4,6.726,1.149,7.646,102.3424,5.278,6.438,15.72,0,109.8,13.51,6.05,223.4
"2010-02-25 01:14:00",1711147,1.155,257.7,2.156,0.079,6.214,102.3401,5.272,6.294,15.43,0,109.8,13.54,6.04,219.7
"2010-02-25 01:14:30",1711148,1.431,265.8,5.989,0.467,6.771,102.3399,5.271,6.323,15.25,0,109.8,13.54,6.04,227.8
"2010-02-25 01:15:00",1711149,2.975,285.4,7.116,1.21,9.34,102.3427,5.278,6.381,15.25,0,109.9,13.51,6.05,247.4
"2010-02-25 01:15:30",1711150,2.963,296.3,8.04,1.326,8.36,102.3416,5.276,6.505,15.57,0,109.8,13.51,6.05,258.3
"2010-02-25 01:16:00",1711151,2.049,291.7,3.745,0.218,5.512,102.349,5.294,6.335,16.12,0,109.8,13.54,6.07,253.7
"2010-02-25 01:16:30",1711152,3.05,290.9,4.363,1.063,6.893,102.3498,5.297,6.439,16.64,0,109.8,13.51,6.07,252.9
"2010-02-25 01:17:00",1711153,4.033,284.9,6.44,1.166,8.53,102.3492,5.295,6.46,16.74,0,109.8,13.51,6.07,246.9
"2010-02-25 01:17:30",1711154,3.032,270.3,8.3,1.197,8.23,102.3507,5.299,6.433,16.11,0,109.8,13.51,6.07,232.3
"2010-02-25 01:18:00",1711155,2.024,266.1,3.459,0.096,6.542,102.3501,5.297,6.289,14.7,0,109.8,13.54,6.07,228.1
"2010-02-25 01:18:30",1711156,3.775,278.6,6.543,1.238,8.71,102.3519,5.302,6.485,14.97,0,109.8,13.51,6.07,240.6
"2010-02-25 01:19:00",1711157,5.53,283.6,7.498,1.128,10.16,102.3524,5.303,6.534,15.32,0,109.8,13.51,6.07,245.6
"2010-02-25 01:19:30",1711158,3.542,282.6,10.68,1.37,7.281,102.3521,5.302,6.546,15.53,0,109.8,13.51,6.07,244.6
"2010-02-25 01:20:00",1711159,3.601,290.9,6.681,1.326,7.6,102.3583,5.318,6.347,15.53,0,109.8,13.51,6.09,252.9
"2010-02-25 01:20:30",1711160,4.225,283.9,7.135,1.325,9.22,102.3679,5.343,6.484,15.52,0,109.8,13.51,6.11,245.9
"2010-02-25 01:21:00",1711161,4.213,301.3,11.1,1.243,8.73,102.3821,5.379,6.54,15.47,0,109.8,13.5,6.15,263.3
"2010-02-25 01:21:30",1711162,2.768,300.7,3.187,0.153,5.605,102.3858,5.388,6.349,15.59,0,109.8,13.51,6.16,262.7
"2010-02-25 01:22:00",1711163,3.788,309.9,5.744,1.173,7.34,102.3881,5.394,6.476,15.93,0,109.8,13.5,6.17,271.9
"2010-02-25 01:22:30",1711164,4.215,312.2,7.094,1.225,8.97,102.389,5.397,6.644,16.18,0,109.8,13.5,6.17,274.2
"2010-02-25 01:23:00",1711165,3.196,300.9,11.28,1.311,7.844,102.389,5.397,6.499,15.87,0,109.8,13.5,6.17,262.9
"2010-02-25 01:23:30",1711166,2.423,289.2,5.95,0.732,5.883,102.3872,5.392,6.401,15.6,0,109.8,13.5,6.16,251.2
"2010-02-25 01:24:00",1711167,3.956,292.2,7.003,1.226,9.65,102.3901,5.399,6.657,15.77,0,109.8,13.5,6.17,254.2
"2010-02-25 01:24:30",1711168,3.935,291.3,8.88,1.352,9.05,102.391,5.402,6.527,15.5,0,109.8,13.5,6.17,253.3
"2010-02-25 01:25:00",1711169,2.488,287.7,8.51,0.21,6.172,102.3989,5.422,6.422,15.18,0,109.8,13.53,6.19,249.7
"2010-02-25 01:25:30",1711170,2.698,281,5.576,1.074,6.673,102.4138,5.46,6.452,14.88,0,109.8,13.5,6.23,243.0
"2010-02-25 01:26:00",1711171,4.119,303.9,10.24,1.243,9.14,102.4241,5.486,6.66,15.02,0,109.8,13.5,6.26,265.9
"2010-02-25 01:26:30",1711172,3.825,292.5,7.415,1.234,9.21,102.4255,5.49,6.611,15.12,0,109.8,13.51,6.26,254.5
"2010-02-25 01:27:00",1711173,2.338,284.7,4.207,0.125,6.075,102.4243,5.487,6.471,15.18,0,109.8,13.54,6.26,246.7
"2010-02-25 01:27:30",1711174,4.27,302.1,8.03,1.174,9.12,102.4283,5.497,6.69,15.52,0,109.8,13.51,6.27,264.1
"2010-02-25 01:28:00",1711175,4.202,298.1,7.331,1.25,9.33,102.4391,5.524,6.76,15.57,0,109.8,13.51,6.30,260.1
"2010-02-25 01:28:30",1711176,3.444,294.6,4.446,1.061,6.887,102.4439,5.537,6.503,15.23,0,109.8,13.51,6.31,256.6
"2010-02-25 01:29:00",1711177,3.44,296.1,7.586,1.191,7.327,102.4524,5.558,6.535,15.22,0,109.8,13.51,6.33,258.1
"2010-02-25 01:29:30",1711178,3.853,296.1,6.312,1.272,8.79,102.4583,5.574,6.684,15.36,0,109.8,13.51,6.35,258.1
"2010-02-25 01:30:00",1711179,3.373,301.1,5.168,1.155,7.737,102.4612,5.581,6.687,15.27,0,109.8,13.51,6.35,263.1
"2010-02-25 01:30:30",1711180,2.977,307.9,3.012,0.227,6.049,102.4612,5.581,6.62,15.14,0,109.8,13.54,6.35,269.9
"2010-02-25 01:31:00",1711181,4.808,314.6,5.655,1.472,8.89,102.4612,5.581,6.721,15.32,0,109.8,13.51,6.35,276.6
"2010-02-25 01:31:30",1711182,4.793,310,7.172,1.261,9.56,102.4614,5.582,6.807,15.69,0,109.8,13.51,6.35,272.0
"2010-02-25 01:32:00",1711183,3.529,303,4.051,0.815,7.349,102.4634,5.587,6.671,16.2,0,109.8,13.51,6.36,265.0
"2010-02-25 01:32:30",1711184,3.766,310.2,7.22,1.094,7.886,102.4784,5.625,6.737,16.79,0,109.8,13.51,6.40,272.2
"2010-02-25 01:33:00",1711185,4.695,319.2,6.853,1.188,9.72,102.494,5.665,6.82,16.93,0,109.8,13.51,6.44,281.2
"2010-02-25 01:33:30",1711186,3.632,312.7,7.318,1.194,7.632,102.4962,5.671,6.637,16.51,0,109.8,13.51,6.44,274.7
"2010-02-25 01:34:00",1711187,2.489,308.4,1.666,0.115,5.98,102.4965,5.671,6.673,16.41,0,109.8,13.54,6.44,270.4
"2010-02-25 01:34:30",1711188,4.044,313.7,6.851,1.156,9.58,102.4974,5.674,6.868,16.4,0,109.8,13.51,6.45,275.7
"2010-02-25 01:35:00",1711189,3.526,309.4,5.594,1.228,8.84,102.4968,5.672,6.803,16.13,0,109.8,13.51,6.44,271.4
"2010-02-25 01:35:30",1711190,1.992,301.9,2.841,0.077,6.144,102.4948,5.667,6.653,16.41,0,109.8,13.54,6.44,263.9
"2010-02-25 01:36:00",1711191,1.973,303.5,1.801,0.12,6.044,102.4939,5.665,6.748,16.61,0,109.8,13.54,6.44,265.5
"2010-02-25 01:36:30",1711192,3.718,310.5,7.54,1.257,8.78,102.4942,5.665,6.753,16.24,0,109.8,13.51,6.44,272.5
"2010-02-25 01:37:00",1711193,2.882,305.2,6.611,1.206,7.694,102.4985,5.676,6.748,16.07,0,109.8,13.51,6.45,267.2
"2010-02-25 01:37:30",1711194,2.946,305.2,6.424,1.217,7.914,102.5078,5.7,6.85,16.06,0,109.8,13.5,6.47,267.2
"2010-02-25 01:38:00",1711195,3.063,302.5,5.647,1.058,7.269,102.5101,5.706,6.79,16.2,0,109.8,13.5,6.48,264.5
"2010-02-25 01:38:30",1711196,4.256,311.6,5.622,1.182,9.72,102.5135,5.715,6.962,17.11,0,109.8,13.5,6.49,273.6
"2010-02-25 01:39:00",1711197,2.931,304.5,6.481,1.234,7.737,102.5149,5.718,6.807,17.01,0,109.8,13.5,6.49,266.5
"2010-02-25 01:39:30",1711198,3.014,303.2,6.692,1.308,7.888,102.5163,5.722,6.804,16.42,0,109.8,13.5,6.49,265.2
"2010-02-25 01:40:00",1711199,2.274,296.2,3.654,0.674,5.845,102.52,5.731,6.79,15.85,0,109.8,13.5,6.50,258.2
"2010-02-25 01:40:30",1711200,4.22,309.8,6.138,1.057,9.49,102.5214,5.735,6.886,15.77,0,109.8,13.5,6.51,271.8
"2010-02-25 01:41:00",1711201,2.215,304.6,2.291,0.035,5.953,102.5242,5.742,6.841,15.67,0,109.8,13.5,6.51,266.6
"2010-02-25 01:41:30",1711202,3.251,312.9,6.383,1.242,8.07,102.5256,5.746,6.919,15.74,0,109.8,13.5,6.52,274.9
"2010-02-25 01:42:00",1711203,4.421,313.4,6.712,1.057,9.08,102.5279,5.751,6.916,15.84,0,109.8,13.5,6.52,275.4
"2010-02-25 01:42:30",1711204,3.583,307.9,6.546,1.296,7.533,102.5259,5.746,6.846,16.05,0,109.8,13.51,6.52,269.9
"2010-02-25 01:43:00",1711205,4.142,315,7.63,1.483,7.898,102.5256,5.746,6.797,15.97,0,109.8,13.51,6.52,277.0
"2010-02-25 01:43:30",1711206,3.186,315.2,3.701,0.462,6.588,102.5251,5.744,6.878,15.74,0,109.8,13.51,6.52,277.2
"2010-02-25 01:44:00",1711207,4.431,323.9,7.14,1.214,8.78,102.5222,5.737,6.892,15.74,0,109.8,13.51,6.51,285.9
"2010-02-25 01:44:30",1711208,4.029,321.6,6.835,1.254,8.27,102.5208,5.733,6.803,15.73,0,109.8,13.51,6.51,283.6
"2010-02-25 01:45:00",1711209,3.424,317.4,4.503,0.955,6.683,102.5205,5.733,6.795,15.76,0,109.8,13.51,6.50,279.4
"2010-02-25 01:45:30",1711210,5.267,323.8,6.208,1.086,9.8,102.5183,5.727,6.979,16.23,0,109.8,13.51,6.50,285.8
"2010-02-25 01:46:00",1711211,5.433,322.2,5.813,1.206,9.09,102.5134,5.714,6.859,16.43,0,109.8,13.51,6.49,284.2
"2010-02-25 01:46:30",1711212,5.446,317.4,8.64,1.415,8.18,102.5135,5.715,6.801,17.19,0,109.8,13.51,6.49,279.4
"2010-02-25 01:47:00",1711213,4.942,317.2,6.408,1.123,8.13,102.5118,5.71,6.961,18.21,0,109.8,13.51,6.48,279.2
"2010-02-25 01:47:30",1711214,4.731,320.2,4.833,1.174,7.668,102.5106,5.707,6.909,18.75,0,109.8,13.51,6.48,282.2
"2010-02-25 01:48:00",1711215,6.114,325,6.124,1.026,10.03,102.5109,5.708,6.936,18.98,0,109.8,13.51,6.48,287.0